STARLINK-2603, 48375

Orbit data source: Space-Track

STARLINK-2603, 48375 is a payload satellite owned by SpaceX/Seattle (US) in LEO that was launched on Tue, 04 May 2021 UTC via an FALCON 9 launch vehicle from the Air Force Eastern Test Range (AFETR). Payload-class satellites include a variety of spacecraft equipped with specific instruments for various scientific and technological missions. These include communications satellites like Starlink; space stations such as the ISS; scientific satellites like the Hubble; Earth observation satellites from companies like Planet Labs, Umbra, and HawkEye 360; GPS; miniature CubeSats for education and research; and military/defense satellites.

Loading next visibility...
Identifier
48375, 2021-038Y
Orbit
LEO
Country
Flag of USUS
Related business
Manufacturer
SpaceX/Seattle
Mission
Operational Commercial Communications
Bus & Motor
STARLINK, Unknown motor
Mass
260 kg wet, ~248 kg dry
Launch date (UTC)
2021-05-04 (5 years ago)
Launch vehicle
FALCON 9
Launch site
Air Force Eastern Test Range (AFETR)
Object type
Payload
Rocket body
Debris
Shape & HBR
Box + 1 Pan, 10.1 m
Radar Cross Section
13.562 m², Large (>1 m²)

Expand to show TLE details & history
Last TLE update: 2 days ago

TLE from 2 days ago
0 STARLINK-2603
1 48375U 21038Y   26171.42745943 -.00000367  00000-0 -62654-7 0  9994
2 48375  53.1592 229.8488 0001164  88.9100 271.2034 15.31696309282962
Epoch: 2026-06-20T10:15Z
TLE epoch observation values (Epoch: 2026-06-20T10:15:32.494Z)
Latitude
-0.0001°
Longitude
167.3211°
Altitude
471.635 km
Speed
7.631 km/s
True Right ascension
15h 19m 23s
True Declination
0° 00' 00"
Sunlit
Object was in full shadow at epoch
Visualization orbit readout
Latitude
Unknown
Longitude
Unknown
Altitude
Unknown
Speed
Unknown
Apparent Right ascension
Unknown
Apparent Declination
Unknown
Sunlit
N/A
Visualization observer readout
Local Sidereal Time
21:24:58
Azimuth
Unknown
Elevation
Unknown
Doppler factor
Unknown
Orbital elements
Apogee altitude
471.805 km
Perigee altitude
470.21 km
Semi-major axis
6,849.145 km
Eccentricity
0.00012
Inclination
53.1592°
RAAN
229.8488°
Arg. of periapsis
88.91°
True anomaly
271.19006°
Mean anomaly
271.2034°
Eccentric anomaly
271.19673°
Mean motion
3.82903 °/min
Orbital period
94.02 mins
BSTAR
-6.2654e-8
Loading maneuver chart data...
Computing Atmospheric mass density...

Documentation

Showing up to 5 results
|